Regional Weather Roundup
Issued by NWS

Home | Current Version | Previous Version | Graphics & Text | Print | Product List | Glossary On
Versions: 1 2 3 4 5 6 7 8 9 10 11 12 13 14 15 16 17 18 19 20 21 22 23 24 25 26 27 28 29 30 31 32 33 34 35 36 37 38 39 40 41 42 43 44 45 46 47 48 49 50
000
ASUS43 KIND 270209
RWRIN

WEATHER ROUNDUP FOR INDIANA
NATIONAL WEATHER SERVICE INDIANAPOLIS IN
900 PM EST SUN FEB 26 2017

NOTE: "FAIR" INDICATES FEW OR NO CLOUDS BELOW 12,000 FEET WITH NO
SIGNIFICANT WEATHER AND/OR OBSTRUCTIONS TO VISIBILITY.

* - STATION DOES NOT REPORT WEATHER SUCH AS PRECIPITATION OR FOG.

+ - STATION NOT QUALITY CONTROLLED BY THE NATIONAL WEATHER SERVICE.
    USE DATA WITH CAUTION...ESPECIALLY DEWPOINT AND RELATIVE
    HUMIDITY OBSERVATIONS.

INZ001>003-010>013-019-020-270300-
NORTHWEST INDIANA

CITY           SKY/WX    TMP DP  RH WIND       PRES   REMARKS
GARY /AIRPORT/ MOCLDY    43  18  36 SW9       30.04R
KNOX *+        CLEAR     37  -2  18 SW12G18   30.05R
LA PORTE +     CLOUDY    38  22  53 SW10      30.05R
MICHIGAN CITY+ MOCLDY    39  21  48 SW12G24   30.04R
MONTICELLO +   MOCLDY    37  22  54 S7        30.08R
RENSSELAER +     N/A     34  23  64 S8        30.07S WCI  27
VALPARAISO     MOCLDY    39  22  50 SW10      30.06R

$$

LMZ046-743>745-270300-
SOUTHERN LAKE MICHIGAN

STATION/POSITION TIME  TEMP    WIND        PRES    WAVE
                       AIR SEA DIR/SP/G            HT
                 (UTC) (F)     (DEG/KT/KT) (MB)    (FT)
BURNS HARBOR     0140   43     210/ 16/ 23 1016.9R
MICHIGAN CITY    0140   43     180/ 19/ 23   N/A

$$

INZ004-005-014>016-021>024-270300-
NORTH CENTRAL INDIANA

CITY           SKY/WX    TMP DP  RH WIND       PRES   REMARKS
GOSHEN         CLEAR     37  20  50 S13       30.05R
LOGANSPORT +   MOCLDY    32  27  80 S7        30.10R WCI  26
PERU/GRISSOM   MOCLDY    37  24  59 SW10      30.08R
ROCHESTER +    CLEAR     39  23  52 S8        30.08R
SOUTH BEND     CLOUDY    40  20  44 SW16G24   30.04R
WARSAW +       CLEAR     37  19  48 SW7       30.07R

$$

INZ006>009-017-018-025>027-270300-
NORTHEAST INDIANA

CITY           SKY/WX    TMP DP  RH WIND       PRES   REMARKS
ANGOLA *+      CLEAR     37  21  52 SW13      30.04S
AUBURN +       CLEAR     37  18  44 SW9       30.08R
FORT WAYNE     CLEAR     32  23  69 SW9       30.09S WCI  24
HUNTINGTON +   CLEAR     37  19  47 SW7       30.10R
KENDALLVILLE + CLEAR     37  21  53 SW12G18   30.06R

$$

INZ028-029-035-036-043>045-051>053-270300-
WEST CENTRAL INDIANA

CITY           SKY/WX    TMP DP  RH WIND       PRES   REMARKS
LAFAYETTE      CLOUDY    41  23  48 S6        30.09S
TERRE HAUTE    CLOUDY    41  24  51 SE5       30.11S

$$

INZ030>032-037>040-046>048-054>057-064-065-270300-
CENTRAL INDIANA

CITY           SKY/WX    TMP DP  RH WIND       PRES   REMARKS
CP ATTERBURY + CLOUDY    43  14  31 CALM      30.14S
COLUMBUS       CLOUDY    41  18  38 S6        30.14F
FISHERS *+     MOCLDY    37  23  56 CALM      30.12S
FRANKFORT +    CLOUDY    39  28  64 SW6       30.11S
GREENWOOD *+   CLOUDY    41  18  38 S5        30.13S
INDIANAPOLIS   CLOUDY    40  17  39 S8        30.12S
-EAGLE CREEK   PTCLDY    39  20  46 CALM      30.11S
KOKOMO +       CLOUDY    40  24  53 SW13      30.11R
MARION +       CLOUDY    38  24  58 SW10      30.12R
MT COMFORT *+  MOCLDY    39  16  38 S3        30.12S
SHELBYVILLE    CLOUDY    39  17  41 S6        30.12F
ZIONSVILLE +   PTCLDY    36  24  60 S6        30.11S

$$

INZ033-034-041-042-049-050-058-059-270300-
EAST CENTRAL INDIANA

CITY           SKY/WX    TMP DP  RH WIND       PRES   REMARKS
MUNCIE         CLOUDY    43  17  35 SW6       30.11S

$$

INZ060-061-067>069-081>083-085>088-270300-
SOUTHWEST INDIANA

CITY           SKY/WX    TMP DP  RH WIND       PRES   REMARKS
EVANSVILLE     CLOUDY    49  21  33 SW8G20    30.14S
HUNTINGBURG *+ CLOUDY    45  21  39 S6        30.15R
WASHINGTON +   CLOUDY    42  24  47 S6        30.13S

$$

INZ062-063-066-070>080-084-089>092-270300-
SOUTH CENTRAL AND SOUTHEAST INDIANA

CITY           SKY/WX    TMP DP  RH WIND       PRES   REMARKS
BEDFORD +      CLOUDY    45  10  24 S3        30.13F
BLOOMINGTON    MOCLDY    42  15  33 S6        30.11F
MADISON *+     PTCLDY    43  14  31 S3        30.17F
NORTH VERNON + CLOUDY    43  14  31 S6        30.15F
SEYMOUR +      CLOUDY    43  21  42 S7        30.14F

$$





USA.gov is the U.S. government's official web portal to all federal, state and local government web resources and services.